This demonstration page uses our WeatherBlox Daily Observations layout. Learn more.

Left ArrowRight Arrow

Hourly Observations for January 10, 2022

Temp ( °F °C ) Dew Point ( °F °C ) Humidity (%) Winds ( mph kmh ) Pressure ( in mb ) Visibility ( mi km ) Precip ( " mm )
12:07 am 00:07 Cloudy 48 8.9 45 7.2 89 89 NW 12 19 30.25 1025 10 16 0.00 0.00
12:18 am 00:18 Cloudy 47 8.3 43 6.1 86 86 NW 18 30 30.26 1025 10 16 0.00 0.00
12:53 am 00:53 Cloudy 44 6.7 38 3.3 79 79 NW 12 19 30.24 1024 10 16 0.00 0.00
1:05 am 01:05 Cloudy 44 6.7 37 2.8 76 76 NW 8 13 30.26 1025 10 16 0.00 0.00
1:37 am 01:37 Mostly Cloudy 43 6.1 36 2.2 76 76 NW 14 22 30.26 1025 10 16 0.00 0.00
1:53 am 01:53 Mostly Cloudy 42 5.6 35 1.7 76 76 NW 12 19 30.24 1024 10 16 0.00 0.00
2:53 am 02:53 Clear 41 5 30 -1.1 65 65 NW 6 9 30.22 1024 10 16 0.00 0.00
3:53 am 03:53 Clear 40 4.4 27 -2.8 60 60 NNW 6 9 30.23 1024 10 16 0.00 0.00
4:53 am 04:53 Clear 39 3.9 25 -3.9 57 57 NW 8 13 30.26 1025 10 16 0.00 0.00
5:53 am 05:53 Clear 38 3.3 24 -4.4 57 57 NW 10 17 30.27 1025 10 16 0.00 0.00
6:53 am 06:53 Clear 36 2.2 24 -4.4 62 62 NNW 8 13 30.31 1026 10 16 0.00 0.00
7:53 am 07:53 Sunny 34 1.1 23 -5 64 64 NW 8 13 30.36 1028 10 16 0.00 0.00
8:53 am 08:53 Sunny 35 1.7 23 -5 61 61 NW 10 17 30.39 1029 10 16 0.00 0.00
9:53 am 09:53 Sunny 38 3.3 21 -6.1 51 51 N 7 11 30.42 1030 10 16 0.00 0.00
10:53 am 10:53 Sunny 42 5.6 17 -8.3 36 36 N 8 13 30.42 1030 10 16 0.00 0.00
11:53 am 11:53 Sunny 47 8.3 16 -8.9 29 29 N 7 11 30.41 1030 10 16 0.00 0.00
12:53 pm 12:53 Sunny 49 9.4 13 -10.6 23 23 N 16 26 30.38 1029 10 16 0.00 0.00
1:53 pm 13:53 Sunny 49 9.4 15 -9.4 26 26 N 12 19 30.37 1028 10 16 0.00 0.00
2:53 pm 14:53 Sunny 50 10 12 -11.1 22 22 NW 14 22 30.36 1028 10 16 0.00 0.00
3:53 pm 15:53 Sunny 50 10 13 -10.6 22 22 NNW 14 22 30.36 1028 10 16 0.00 0.00
4:53 pm 16:53 Sunny 47 8.3 14 -10 26 26 NNW 8 13 30.39 1029 10 16 0.00 0.00
5:53 pm 17:53 Clear 44 6.7 14 -10 30 30 NNW 7 11 30.40 1030 10 16 0.00 0.00
6:53 pm 18:53 Clear 42 5.6 15 -9.4 33 33 N 6 9 30.43 1030 10 16 0.00 0.00
7:53 pm 19:53 Clear 42 5.6 16 -8.9 35 35 NNW 3 6 30.44 1031 10 16 0.00 0.00
8:53 pm 20:53 Clear 41 5 15 -9.4 35 35 NNW 7 11 30.44 1031 10 16 0.00 0.00
10:53 pm 22:53 Clear 39 3.9 13 -10.6 34 34 NNW 8 13 30.45 1031 10 16 0.00 0.00
11:53 pm 23:53 Clear 38 3.3 14 -10 37 37 N 15 24 30.45 1031 10 16 0.00 0.00

Powered by AerisWeather